Location: Lombard
(41.8800°N, 88.0080°W)
Time: 17:11:42
(UTC-06:00)

Vanguard 3 - Pass Details

Date: 14 December 2023
Orbit: 508 x 3239 km, 33.4° (Epoch: 23 February)

Event Time Altitude Azimuth Distance (km) Brightness Sun altitude
Rises 18:27:16 0° 236° (SW) 7,173 13.1 -22.6°
Reaches altitude 10° 18:32:19 10° 232° (SW) 6,165 12.5 -23.5°
Maximum altitude 18:50:33 52° 164° (SSE) 3,226 10.0 -26.8°
Enters shadow 18:56:59 35° 113° (ESE) 3,400 9.8 -28.0°
